Fresno, CA

12:18 AM PST on December 08, 2019 (GMT -0800)
Fresno Yosemite International

Weather History for KFAT - November, 2019

Change the Weather History Date:

Saturday, November 16, 2019

  Actual Average Record
Temperature  
Mean Temperature 59 °F 54 °F  
Max Temperature 71 °F 65 °F 81 °F (2008)
Min Temperature 47 °F 43 °F 27 °F (1958)
Degree Days  
Heating Degree Days 6    
Month to date heating degree days 44  
Since 1 July heating degree days 101  
Cooling Degree Days 0    
Month to date cooling degree days 0  
Year to date cooling degree days 2392  
Growing Degree Days 8 (Base 50)    
Moisture  
Dew Point 46 °F    
Average Humidity 65    
Maximum Humidity 86    
Minimum Humidity 44    
Precipitation  
Precipitation 0.00 in 0.04 in 1.33 in (1888)
Month to date precipitation 0.00 0.55  
Year to date precipitation 9.52 9.21  
Snow  
Snow 0.00 in - - ()
Month to date snowfall 0.0  
Since 1 July snowfall 0.0  
Since 1 September snowfall 0.0  
Snow Depth 0.00 in    
Sea Level Pressure  
Sea Level Pressure 30.14 in    
Wind  
Wind Speed 2 mph (ESE)    
Max Wind Speed 7 mph    
Max Gust Speed 8 mph    
Visibility 6 miles    
Events      
T = Trace of Precipitation, MM = Missing Value Source: NWS Daily Summary

Daily Weather History Graph

Daily Weather History Graph

Search for Another Location

Airport or City:

Astronomy

Nov. 16, 2019 Rise Set
Actual Time 6:37 AM PST 4:49 PM PST
Civil Twilight 6:10 AM PST 5:16 PM PST
Nautical Twilight 5:38 AM PST 5:47 PM PST
Astronomical Twilight 5:08 AM PST 6:18 PM PST
Moon 8:29 PM PST (11/16) 10:33 AM PST (11/16)
Length of Visible Light 11h 06m
Length of Day
10h 11m
Waning Gibbous, 81% of the Moon is Illuminated
Nov 16
Waning Gibbous
Nov 19
Last Quarter
Nov 26
New
Dec 3
First Quarter
Dec 11
Full

Hourly Weather History & Observations

Time (PST) Temp. Dew Point Humidity Pressure Visibility Wind Dir Wind Speed Gust Speed Precip Events Conditions
12:53 AM 51.1 °F 46.0 °F 83% 30.15 in 8.0 mi Calm Calm - N/A   Scattered Clouds
1:53 AM 50.0 °F 44.1 °F 80% 30.16 in 8.0 mi Calm Calm - N/A   Scattered Clouds
2:53 AM 50.0 °F 45.0 °F 83% 30.15 in 8.0 mi East 5.8 mph - N/A   Mostly Cloudy
3:53 AM 48.0 °F 43.0 °F 83% 30.15 in 4.0 mi ESE 3.5 mph - N/A   Haze
4:53 AM 48.0 °F 44.1 °F 86% 30.15 in 3.0 mi Calm Calm - N/A   Scattered Clouds
5:53 AM 48.0 °F 44.1 °F 86% 30.16 in 3.0 mi East 3.5 mph - N/A   Scattered Clouds
6:53 AM 48.0 °F 44.1 °F 86% 30.17 in 2.0 mi East 4.6 mph - N/A   Partly Cloudy
7:25 AM 48.0 °F 44.1 °F 86% 30.18 in 4.0 mi Calm Calm - N/A   Partly Cloudy
7:53 AM 51.1 °F 45.0 °F 80% 30.18 in 5.0 mi SE 3.5 mph - N/A   Haze
8:53 AM 55.9 °F 46.9 °F 72% 30.18 in 4.0 mi SE 4.6 mph - N/A   Haze
9:53 AM 59.0 °F 48.0 °F 67% 30.18 in 4.0 mi ESE 3.5 mph - N/A   Haze
10:53 AM 63.0 °F 48.9 °F 60% 30.17 in 5.0 mi Calm Calm - N/A   Haze
11:53 AM 64.9 °F 48.0 °F 54% 30.14 in 7.0 mi Calm Calm - N/A   Clear
12:53 PM 66.9 °F 48.0 °F 51% 30.11 in 7.0 mi Calm Calm - N/A   Clear
1:53 PM 68.0 °F 48.0 °F 49% 30.09 in 8.0 mi Calm Calm - N/A   Clear
2:53 PM 70.0 °F 48.0 °F 46% 30.09 in 8.0 mi Calm Calm - N/A   Partly Cloudy
3:53 PM 69.1 °F 46.9 °F 45% 30.09 in 8.0 mi Calm Calm - N/A   Partly Cloudy
4:53 PM 68.0 °F 46.9 °F 47% 30.09 in 9.0 mi SE 3.5 mph - N/A   Scattered Clouds
5:53 PM 64.9 °F 48.0 °F 54% 30.10 in 9.0 mi SSW 3.5 mph - N/A   Partly Cloudy
6:53 PM 61.0 °F 48.0 °F 62% 30.11 in 9.0 mi Calm Calm - N/A   Clear
7:53 PM 57.0 °F 46.9 °F 69% 30.12 in 8.0 mi NNE 3.5 mph - N/A   Clear
8:53 PM 57.0 °F 48.0 °F 72% 30.12 in 6.0 mi Calm Calm - N/A   Haze
9:53 PM 55.0 °F 46.0 °F 72% 30.12 in 6.0 mi Calm Calm - N/A   Haze
10:53 PM 53.1 °F 46.0 °F 77% 30.13 in 6.0 mi East 4.6 mph - N/A   Haze
11:53 PM 52.0 °F 46.0 °F 80% 30.12 in 7.0 mi East 3.5 mph - N/A   Clear